Location: Newark
(49.5647°N, 8.2922°E)
Time: 14:54:18
(UTC+00:00)

Transit 2A - Pass Details

Date: 24 February 2020
Orbit: 597 x 962 km, 66.7° (Epoch: 04 April)

Event Time Altitude Azimuth Distance (km) Brightness Sun altitude
Rises 11:06:09 0° 170° (S) 2,828 10.1 30.4°
Reaches altitude 10° 11:09:00 10° 150° (SSE) 1,928 9.4 30.5°
Maximum altitude 11:11:48 17° 109° (ESE) 1,530 8.1 30.5°
Drops below altitude 10° 11:14:39 10° 68° (ENE) 1,970 8.1 30.6°
Sets 11:17:36 0° 48° (NE) 2,920 8.7 30.7°
